When you browse on this site, cookies collect data to enhance your experience and personalize the content and advertising you see.
Visit our Privacy Policy to learn more. By continuing to use the site, you agree to this use of cookies and data.
  • In Portugal
  • List of Countries
  • For 7 days
  • Water Temperature
  • Satellite Maps
  • Weather Map
  • Weather Widgets
  • user-avatar
    Login

    Hourly Weather Skalnyy

    Today, 20 February, Wednesday

    Time Temperature Precipitation Wind Pressure Humidity
    00:00 -19°C° 0 mm 0 mps 726 mmHg 94%
    01:00 -19°C° 0 mm 0 mps 726 mmHg 95%
    02:00 -20°C° 0 mm 0 mps 726 mmHg 95%
    03:00 -20°C° 0 mm 0 mps 727 mmHg 95%
    04:00 -21°C° 0 mm 0 mps 727 mmHg 96%
    05:00 -21°C° 0 mm 1 mps 727 mmHg 96%
    06:00 -21°C° 0 mm 1 mps 727 mmHg 97%
    07:00 -22°C° 0 mm 1 mps 727 mmHg 97%
    08:00 -20°C° 0 mm 1 mps 727 mmHg 95%
    09:00 -19°C° 0 mm 1 mps 728 mmHg 94%
    10:00 -17°C° 0 mm 1 mps 728 mmHg 92%
    11:00 -16°C° 0 mm 1 mps 728 mmHg 90%
    12:00 -16°C° 0 mm 2 mps 728 mmHg 87%
    13:00 -15°C° 0 mm 2 mps 728 mmHg 85%
    14:00 -15°C° 0 mm 2 mps 727 mmHg 86%
    15:00 -14°C° 0 mm 2 mps 727 mmHg 86%
    16:00 -15°C° 0 mm 3 mps 727 mmHg 87%
    17:00 -16°C° 0 mm 3 mps 727 mmHg 89%
    18:00 -17°C° 0 mm 3 mps 727 mmHg 92%
    19:00 -18°C° 0 mm 3 mps 726 mmHg 94%
    20:00 -18°C° 0 mm 3 mps 726 mmHg 94%
    21:00 -17°C° 0 mm 3 mps 726 mmHg 94%
    22:00 -17°C° 0 mm 3 mps 725 mmHg 94%
    23:00 -16°C° 0.1 mm 3 mps 725 mmHg 93%

    Tomorrow, 21 February, Thursday

    Time Temperature Precipitation Wind Pressure Humidity
    00:00 -16°C° 0.1 mm 4 mps 724 mmHg 93%
    01:00 -16°C° 0.1 mm 4 mps 724 mmHg 92%
    02:00 -15°C° 0.1 mm 4 mps 723 mmHg 92%
    03:00 -14°C° 0.1 mm 4 mps 723 mmHg 91%
    04:00 -14°C° 0.1 mm 4 mps 723 mmHg 91%
    05:00 -12°C° 0.1 mm 4 mps 723 mmHg 91%
    06:00 -12°C° 0.1 mm 4 mps 722 mmHg 91%
    07:00 -12°C° 0.1 mm 4 mps 722 mmHg 92%
    08:00 -11°C° 0.2 mm 4 mps 722 mmHg 92%
    09:00 -10°C° 0.2 mm 4 mps 722 mmHg 92%
    10:00 -10°C° 0.2 mm 4 mps 722 mmHg 91%
    11:00 -9°C° 0.2 mm 4 mps 722 mmHg 91%
    12:00 -8°C° 0.2 mm 4 mps 723 mmHg 90%
    13:00 -7°C° 0.2 mm 4 mps 723 mmHg 90%
    14:00 -5°C° 0.1 mm 4 mps 723 mmHg 90%
    15:00 -5°C° 0.1 mm 4 mps 723 mmHg 90%
    16:00 -5°C° 0.1 mm 4 mps 724 mmHg 90%
    17:00 -5°C° 0.1 mm 4 mps 724 mmHg 90%
    18:00 -7°C° 0.1 mm 4 mps 724 mmHg 91%
    19:00 -7°C° 0.1 mm 4 mps 725 mmHg 92%
    20:00 -7°C° 0.1 mm 4 mps 725 mmHg 92%
    21:00 -6°C° 0.1 mm 3 mps 725 mmHg 92%
    22:00 -6°C° 0.1 mm 3 mps 725 mmHg 92%
    23:00 -6°C° 0.1 mm 3 mps 726 mmHg 93%

    Day after tomorrow, 22 February, Friday

    Time Temperature Precipitation Wind Pressure Humidity
    00:00 -6°C° 0.1 mm 3 mps 726 mmHg 93%
    01:00 -7°C° 0.1 mm 3 mps 726 mmHg 93%
    02:00 -7°C° 0.1 mm 3 mps 726 mmHg 93%
    03:00 -7°C° 0.1 mm 3 mps 727 mmHg 93%
    04:00 -7°C° 0.1 mm 3 mps 727 mmHg 93%
    05:00 -7°C° 0.1 mm 3 mps 727 mmHg 93%
    06:00 -7°C° 0.1 mm 3 mps 727 mmHg 93%
    07:00 -7°C° 0.1 mm 3 mps 727 mmHg 93%
    08:00 -6°C° 0.1 mm 3 mps 728 mmHg 93%
    09:00 -5°C° 0.1 mm 3 mps 728 mmHg 92%
    10:00 -5°C° 0.1 mm 3 mps 728 mmHg 91%
    11:00 -4°C° 0 mm 3 mps 728 mmHg 90%
    12:00 -4°C° 0 mm 3 mps 728 mmHg 90%
    13:00 -2°C° 0 mm 2 mps 728 mmHg 89%
    14:00 -2°C° 0.1 mm 2 mps 728 mmHg 90%
    15:00 -2°C° 0.1 mm 3 mps 728 mmHg 90%
    16:00 -2°C° 0.1 mm 3 mps 728 mmHg 91%
    17:00 -4°C° 0.2 mm 3 mps 729 mmHg 92%
    18:00 -4°C° 0.2 mm 3 mps 729 mmHg 93%
    19:00 -3°C° 0.2 mm 2 mps 729 mmHg 94%
    20:00 -5°C° 0 mm 3 mps 729 mmHg 94%
    21:00 -5°C° 0 mm 3 mps 729 mmHg 94%
    22:00 -5°C° 0 mm 3 mps 729 mmHg 94%
    23:00 -6°C° 0.1 mm 3 mps 729 mmHg 94%

    23 February, Saturday

    Time Temperature Precipitation Wind Pressure Humidity
    00:00 -7°C° 0.1 mm 3 mps 729 mmHg 94%
    01:00 -7°C° 0.1 mm 3 mps 729 mmHg 94%
    02:00 -8°C° 0.6 mm 3 mps 730 mmHg 95%
    03:00 -7°C° 0.6 mm 2 mps 730 mmHg 95%
    04:00 -7°C° 0.6 mm 2 mps 730 mmHg 95%
    05:00 -7°C° 0.4 mm 2 mps 731 mmHg 95%
    06:00 -7°C° 0.4 mm 2 mps 731 mmHg 94%
    07:00 -7°C° 0.4 mm 2 mps 732 mmHg 93%
    08:00 -8°C° 0 mm 2 mps 732 mmHg 93%
    09:00 -8°C° 0 mm 2 mps 733 mmHg 93%
    10:00 -9°C° 0 mm 2 mps 733 mmHg 92%
    11:00 -8°C° 0 mm 2 mps 734 mmHg 92%
    12:00 -8°C° 0 mm 2 mps 734 mmHg 92%
    13:00 -8°C° 0 mm 2 mps 734 mmHg 91%
    14:00 -8°C° 0.1 mm 2 mps 734 mmHg 90%
    15:00 -7°C° 0.1 mm 2 mps 734 mmHg 89%
    16:00 -7°C° 0.1 mm 2 mps 734 mmHg 88%
    17:00 -8°C° 0 mm 2 mps 735 mmHg 90%
    18:00 -8°C° 0 mm 1 mps 735 mmHg 92%
    19:00 -8°C° 0 mm 1 mps 735 mmHg 94%
    20:00 -9°C° 0 mm 1 mps 735 mmHg 95%
    21:00 -11°C° 0 mm 1 mps 735 mmHg 96%
    22:00 -14°C° 0 mm 2 mps 735 mmHg 97%
    23:00 -12°C° 0 mm 1 mps 735 mmHg 97%

    24 February, Sunday

    Time Temperature Precipitation Wind Pressure Humidity
    00:00 -12°C° 0 mm 1 mps 735 mmHg 97%
    01:00 -12°C° 0 mm 1 mps 735 mmHg 98%
    02:00 -12°C° 0 mm 1 mps 735 mmHg 97%
    03:00 -12°C° 0 mm 1 mps 735 mmHg 97%
    04:00 -11°C° 0 mm 1 mps 735 mmHg 97%
    05:00 -12°C° 0.1 mm 1 mps 734 mmHg 97%
    06:00 -12°C° 0.1 mm 1 mps 734 mmHg 98%
    07:00 -12°C° 0.1 mm 1 mps 734 mmHg 98%
    08:00 -13°C° 0 mm 2 mps 734 mmHg 97%
    09:00 -12°C° 0 mm 2 mps 735 mmHg 95%
    10:00 -10°C° 0 mm 2 mps 735 mmHg 94%
    11:00 -12°C° 0.1 mm 3 mps 735 mmHg 93%
    12:00 -10°C° 0.1 mm 3 mps 735 mmHg 91%
    13:00 -10°C° 0.1 mm 4 mps 735 mmHg 90%
    14:00 -10°C° 0.1 mm 4 mps 735 mmHg 90%
    15:00 -10°C° 0.1 mm 4 mps 735 mmHg 90%
    16:00 -10°C° 0.1 mm 4 mps 734 mmHg 90%
    17:00 -11°C° 0.1 mm 4 mps 734 mmHg 89%
    18:00 -11°C° 0.1 mm 4 mps 734 mmHg 89%
    19:00 -12°C° 0.1 mm 4 mps 734 mmHg 89%
    20:00 -14°C° 0 mm 4 mps 734 mmHg 90%
    21:00 -14°C° 0 mm 4 mps 734 mmHg 91%
    22:00 -15°C° 0 mm 4 mps 733 mmHg 92%
    23:00 -15°C° 0.1 mm 4 mps 733 mmHg 92%

    25 February, Monday

    Time Temperature Precipitation Wind Pressure Humidity
    00:00 -15°C° 0.1 mm 4 mps 733 mmHg 92%
    01:00 -15°C° 0.1 mm 4 mps 733 mmHg 92%
    02:00 -15°C° 0.1 mm 4 mps 733 mmHg 92%
    03:00 -15°C° 0.1 mm 4 mps 732 mmHg 93%
    04:00 -14°C° 0.1 mm 3 mps 732 mmHg 93%
    05:00 -14°C° 0.1 mm 3 mps 732 mmHg 93%
    06:00 -14°C° 0.1 mm 3 mps 732 mmHg 94%
    07:00 -14°C° 0.1 mm 3 mps 731 mmHg 94%
    08:00 -13°C° 0.1 mm 3 mps 731 mmHg 94%
    09:00 -13°C° 0.1 mm 3 mps 731 mmHg 93%
    10:00 -12°C° 0.1 mm 3 mps 731 mmHg 93%
    11:00 -12°C° 0.1 mm 3 mps 731 mmHg 93%
    12:00 -10°C° 0.1 mm 3 mps 731 mmHg 92%
    13:00 -9°C° 0.1 mm 3 mps 730 mmHg 92%
    14:00 -9°C° 0.1 mm 3 mps 730 mmHg 92%
    15:00 -10°C° 0.1 mm 4 mps 730 mmHg 92%
    16:00 -10°C° 0.1 mm 4 mps 729 mmHg 91%
    17:00 -9°C° 0 mm 3 mps 729 mmHg 92%
    18:00 -9°C° 0 mm 3 mps 729 mmHg 92%
    19:00 -10°C° 0 mm 3 mps 729 mmHg 93%
    20:00 -10°C° 0.1 mm 3 mps 729 mmHg 93%
    21:00 -10°C° 0.1 mm 3 mps 728 mmHg 93%
    22:00 -10°C° 0.1 mm 3 mps 728 mmHg 93%
    23:00 -10°C° 0 mm 3 mps 728 mmHg 93%
    Show more